GW5874 Weather Reports


time (UTC)temp
F
wind
direction
speed
knots
gust
knots
rain 1hr
in
rain 24hr
in
rain mn
in
humidity
%
barometer
mb
20260831181753 101 304 2.6 3.5 0.00 0.00 0.00 32 1016.9
20260831181249 98 211 3.5 4.3 0.00 0.00 0.00 33 1017.0
20260831180748 96 299 1.7 2.6 0.00 0.00 0.00 36 1017.1
20260831180243 100 121 3.5 3.5 0.00 0.00 0.00 35 1017.2
20260831175743 99 19 0.9 0.9 0.00 0.00 0.00 34 1017.2
20260831175239 97 172 1.7 2.6 0.00 0.00 0.00 35 1017.4
20260831174734 99 234 4.3 6.1 0.00 0.00 0.00 33 1017.4
20260831174230 98 244 1.7 2.6 0.00 0.00 0.00 35 1017.6
20260831173729 98 236 1.7 2.6 0.00 0.00 0.00 36 1017.4
20260831173229 97 291 2.6 3.5 0.00 0.00 0.00 36 1017.6
20260831172724 97 277 3.5 4.3 0.00 0.00 0.00 36 1017.6
20260831172220 98 196 0.9 0.9 0.00 0.00 0.00 36 1017.6
20260831171714 98 302 1.7 2.6 0.00 0.00 0.00 36 1017.7
20260831171212 98 284 2.6 3.5 0.00 0.00 0.00 35 1017.8
20260831170708 98 286 1.7 2.6 0.00 0.00 0.00 37 1017.8
20260831170204 98 321 1.7 3.5 0.00 0.00 0.00 38 1017.9
20260831165700 97 232 1.7 2.6 0.00 0.00 0.00 38 1018.2
20260831165156 98 259 0.9 2.6 0.00 0.00 0.00 38 1018.2
20260831164652 96 245 1.7 2.6 0.00 0.00 0.00 39 1018.0
20260831164148 96 285 1.7 2.6 0.00 0.00 0.00 40 1018.1
20260831163643 96 273 1.7 3.5 0.00 0.00 0.00 40 1018.3
20260831163138 95 256 1.7 2.6 0.00 0.00 0.00 40 1018.2
20260831162637 96 312 2.6 3.5 0.00 0.00 0.00 40 1018.2
20260831162135 96 277 1.7 3.5 0.00 0.00 0.00 40 1018.3
20260831161631 95 233 2.6 3.5 0.00 0.00 0.00 40 1018.2
20260831161128 94 344 2.6 3.5 0.00 0.00 0.00 42 1018.3
20260831160627 93 261 3.5 4.3 0.00 0.00 0.00 43 1018.2
20260831160123 94 303 3.5 3.5 0.00 0.00 0.00 41 1018.2
20260831155622 95 272 2.6 3.5 0.00 0.00 0.00 42 1018.2
20260831155118 94 174 2.6 3.5 0.00 0.00 0.00 44 1018.1
20260831154614 95 291 3.5 4.3 0.00 0.00 0.00 42 1018.2
20260831154114 96 171 3.5 3.5 0.00 0.00 0.00 41 1017.9
20260831153613 94 257 2.6 3.5 0.00 0.00 0.00 43 1018.0
20260831153110 94 232 1.7 2.6 0.00 0.00 0.00 43 1018.1
20260831152605 93 356 0.9 0.9 0.00 0.00 0.00 45 1018.0
20260831152101 93 282 0.9 2.6 0.00 0.00 0.00 45 1017.8
20260831151600 91 192 1.7 2.6 0.00 0.00 0.00 48 1017.9
20260831151054 92 163 1.7 3.5 0.00 0.00 0.00 46 1018.2
20260831150549 91 201 1.7 2.6 0.00 0.00 0.00 48 1017.9
20260831150046 91 194 2.6 3.5 0.00 0.00 0.00 49 1018.2
20260831145540 90 206 2.6 3.5 0.00 0.00 0.00 51 1017.9
20260831145036 89 181 1.7 2.6 0.00 0.00 0.00 52 1017.9
20260831144531 88 245 2.6 3.5 0.00 0.00 0.00 52 1017.9
20260831144027 88 179 3.5 4.3 0.00 0.00 0.00 54 1017.9
20260831143521 87 202 3.5 4.3 0.00 0.00 0.00 54 1018.0
20260831143017 87 150 4.3 4.3 0.00 0.00 0.00 55 1018.1
20260831142514 86 230 2.6 3.5 0.00 0.00 0.00 56 1017.9
20260831142009 86 184 0.9 0.9 0.00 0.00 0.00 56 1017.9
20260831141507 86 181 1.7 2.6 0.00 0.00 0.00 56 1018.2
20260831141002 85 171 1.7 2.6 0.00 0.00 0.00 57 1018.0
20260831140502 85 207 2.6 3.5 0.00 0.00 0.00 57 1018.1
20260831140001 86 152 1.7 2.6 0.00 0.00 0.00 56 1018.1
20260831135500 84 218 0.0 0.0 0.00 0.00 0.00 58 1017.9
20260831134955 84 228 0.0 0.0 0.00 0.00 0.00 57 1018.0
20260831134452 82 221 0.0 0.0 0.00 0.00 0.00 60 1017.9
20260831133951 82 221 0.9 0.9 0.00 0.00 0.00 61 1018.0
20260831133446 81 293 0.0 0.9 0.00 0.00 0.00 61 1017.9
20260831132941 80 256 0.0 0.9 0.00 0.00 0.00 62 1017.7
20260831132437 79 226 0.0 0.0 0.00 0.00 0.00 63 1017.7
20260831131936 79 246 0.0 0.0 0.00 0.00 0.00 65 1017.8
20260831131431 78 264 0.0 0.0 0.00 0.00 0.00 68 1017.5
20260831130927 77 259 0.0 0.9 0.00 0.00 0.00 69 1017.6
20260831130422 76 233 0.0 0.0 0.00 0.00 0.00 71 1017.5
20260831125921 74 271 0.0 0.0 0.00 0.00 0.00 74 1017.4
20260831125416 72 277 0.0 0.0 0.00 0.00 0.00 77 1017.4
20260831124912 72 251 0.0 0.0 0.00 0.00 0.00 79 1017.6
20260831124408 72 299 0.0 0.0 0.00 0.00 0.00 79 1017.3
20260831123908 71 301 0.0 0.0 0.00 0.00 0.00 79 1017.3
20260831123407 70 297 0.9 0.9 0.00 0.00 0.00 81 1017.2
20260831122902 69 285 0.0 0.0 0.00 0.00 0.00 83 1017.2
20260831122357 69 281 0.0 0.0 0.00 0.00 0.00 84 1016.9
20260831121852 69 267 0.0 0.0 0.00 0.00 0.00 83 1016.9
20260831121348 69 282 0.0 0.0 0.00 0.00 0.00 83 1016.9
20260831120843 69 282 0.0 0.0 0.00 0.00 0.00 84 1016.8
20260831120338 69 293 0.0 0.0 0.00 0.00 0.00 83 1016.6
20260831115833 69 282 0.0 0.0 0.00 0.00 0.00 82 1016.8
20260831115330 69 283 0.0 0.0 0.00 0.00 0.00 82 1016.7
20260831114828 69 274 0.0 0.0 0.00 0.00 0.00 83 1016.4
20260831114327 69 264 0.0 0.0 0.00 0.00 0.00 82 1016.5
20260831113823 69 295 0.0 0.9 0.00 0.00 0.00 81 1016.5
20260831113323 69 266 0.0 0.0 0.00 0.00 0.00 81 1016.3
20260831112818 69 266 0.0 0.0 0.00 0.00 0.00 79 1016.3
20260831112313 69 272 0.0 0.0 0.00 0.00 0.00 79 1016.3
20260831111808 70 266 0.0 0.0 0.00 0.00 0.00 78 1016.4
20260831111304 71 269 0.0 0.0 0.00 0.00 0.00 77 1016.3
20260831110800 71 268 0.0 0.0 0.00 0.00 0.00 76 1016.1
20260831110255 71 261 0.0 0.0 0.00 0.00 0.00 75 1016.2
20260831105753 72 259 0.0 0.0 0.00 0.00 0.00 74 1016.1
20260831105249 73 260 0.0 0.0 0.00 0.00 0.00 74 1016.1
20260831104749 73 263 0.0 0.0 0.00 0.00 0.00 72 1016.2
20260831104246 73 241 0.0 0.0 0.00 0.00 0.00 71 1016.2
20260831103746 74 247 0.0 0.9 0.00 0.00 0.00 70 1016.1
20260831103242 74 225 0.0 0.9 0.00 0.00 0.00 69 1016.3
20260831102741 74 249 0.0 0.0 0.00 0.00 0.00 68 1015.9
20260831102236 75 249 0.0 0.0 0.00 0.00 0.00 67 1015.9
20260831101732 75 262 0.0 0.0 0.00 0.00 0.00 66 1015.9
20260831101227 75 220 0.0 0.0 0.00 0.00 0.00 67 1016.1
20260831100723 75 141 0.9 0.9 0.00 0.00 0.00 65 1015.9
20260831100219 75 192 0.0 0.9 0.00 0.00 0.00 65 1016.1
20260831095718 76 240 0.0 0.9 0.00 0.00 0.00 65 1015.8
20260831095213 76 179 0.9 0.9 0.00 0.00 0.00 64 1015.8
20260831094708 76 195 1.7 2.6 0.00 0.00 0.00 64 1015.9
20260831094204 76 102 1.7 2.6 0.00 0.00 0.00 62 1015.9
20260831093659 76 216 0.9 0.9 0.00 0.00 0.00 63 1015.9
20260831093155 76 261 0.0 0.0 0.00 0.00 0.00 64 1015.9
20260831092651 76 225 0.9 0.9 0.00 0.00 0.00 64 1015.9
20260831092147 76 185 1.7 2.6 0.00 0.00 0.00 62 1015.7
20260831091645 77 228 0.9 2.6 0.00 0.00 0.00 61 1015.7
20260831091142 77 222 0.0 0.9 0.00 0.00 0.00 61 1015.8
20260831090637 77 251 0.0 0.0 0.00 0.00 0.00 61 1015.7
20260831090133 77 215 0.9 0.9 0.00 0.00 0.00 61 1015.6
20260831085628 77 223 0.9 0.9 0.00 0.00 0.00 60 1015.5
20260831085123 77 133 1.7 2.6 0.00 0.00 0.00 60 1015.4
20260831084619 77 97 2.6 2.6 0.00 0.00 0.00 60 1015.5
20260831084115 77 197 0.0 0.9 0.00 0.00 0.00 60 1015.6
20260831083611 77 208 0.9 0.9 0.00 0.00 0.00 60 1015.6
20260831083106 77 99 0.9 0.9 0.00 0.00 0.00 59 1015.6
20260831082604 77 103 1.7 2.6 0.00 0.00 0.00 59 1015.5
20260831082059 77 125 1.7 2.6 0.00 0.00 0.00 59 1015.5
20260831081555 77 202 1.7 2.6 0.00 0.00 0.00 58 1015.4
20260831081051 77 182 1.7 2.6 0.00 0.00 0.00 58 1015.4
20260831080546 77 232 1.7 2.6 0.00 0.00 0.00 60 1015.2
20260831080041 77 243 0.0 0.9 0.00 0.00 0.00 62 1015.3
20260831075536 77 125 1.7 2.6 0.00 0.00 0.00 60 1015.4
20260831075032 77 96 1.7 2.6 0.00 0.00 0.00 60 1015.3
20260831074531 77 179 0.0 0.9 0.00 0.00 0.00 61 1015.3
20260831074031 77 216 0.0 0.9 0.00 0.00 0.00 60 1015.3
20260831073526 77 83 0.9 0.9 0.00 0.00 0.00 61 1015.4
20260831073025 77 240 0.0 0.0 0.00 0.00 0.00 60 1015.4
20260831072521 76 208 0.0 0.9 0.00 0.00 0.00 61 1015.3
20260831072017 75 236 0.0 0.0 0.00 0.00 0.00 64 1015.4
20260831071516 76 236 0.0 0.9 0.00 0.00 0.00 65 1015.3
20260831071012 76 211 0.0 0.9 0.00 0.00 0.00 64 1015.4
20260831070510 76 221 0.0 0.9 0.00 0.00 0.00 62 1015.3
20260831070005 76 258 0.0 0.0 0.00 0.00 0.00 62 1015.4
20260831065503 76 213 0.9 0.9 0.00 0.00 0.00 65 1015.5
20260831064957 76 163 0.9 0.9 0.00 0.00 0.00 63 1015.4
20260831064452 76 247 0.0 0.0 0.00 0.00 0.00 65 1015.6
20260831063948 76 243 0.0 0.0 0.00 0.00 0.00 64 1015.6
20260831063443 76 220 0.9 0.9 0.00 0.00 0.00 64 1015.4
20260831062937 76 158 0.9 0.9 0.00 0.00 0.00 64 1015.4
20260831062433 76 143 0.9 0.9 0.00 0.00 0.00 65 1015.3
20260831061932 77 223 0.9 0.9 0.00 0.00 0.00 65 1015.4
20260831061430 77 192 0.9 0.9 0.00 0.00 0.00 65 1015.6
20260831060927 77 97 0.9 0.9 0.00 0.00 0.00 66 1015.6
20260831060421 77 234 0.0 0.9 0.00 0.00 0.00 62 1015.5
20260831055920 77 167 1.7 2.6 0.00 0.00 0.00 63 1015.6
20260831055415 77 88 1.7 2.6 0.00 0.00 0.00 64 1015.5
20260831054911 77 236 0.9 0.9 0.00 0.00 0.00 63 1015.5
20260831054407 77 177 0.9 0.9 0.00 0.00 0.00 62 1015.5
20260831053906 78 183 0.9 2.6 0.00 0.00 0.00 63 1015.6
20260831053404 77 167 1.7 2.6 0.00 0.00 0.00 62 1015.5
20260831052859 77 80 0.9 0.9 0.00 0.00 0.00 65 1015.3
20260831052358 77 208 0.9 0.9 0.00 0.00 0.00 66 1015.5
20260831051856 77 108 0.9 0.9 0.00 0.00 0.00 65 1015.3
20260831051354 76 203 0.9 0.9 0.00 0.00 0.00 65 1015.5
20260831050850 76 116 0.9 0.9 0.00 0.00 0.00 67 1015.4
20260831050344 77 113 0.9 2.6 0.00 0.00 0.00 65 1015.4
20260831045844 78 228 0.0 0.9 0.00 0.00 0.00 62 1015.3
20260831045343 78 228 0.0 0.9 0.00 0.00 0.00 64 1015.4
20260831044838 79 229 0.0 0.9 0.00 0.00 0.00 61 1015.3
20260831044338 79 248 0.0 0.0 0.00 0.00 0.00 60 1015.3
20260831043835 79 203 0.9 0.9 0.00 0.00 0.00 59 1015.4
20260831043334 79 219 0.0 0.0 0.00 0.00 0.00 59 1015.2
20260831042829 79 232 0.0 0.0 0.00 0.00 0.00 61 1015.0
20260831042328 79 178 0.9 0.9 0.00 0.00 0.00 59 1015.2
20260831041824 79 181 0.9 0.9 0.00 0.00 0.00 60 1014.9
20260831041323 78 220 0.9 0.9 0.00 0.00 0.00 63 1015.1
20260831040818 79 125 0.9 0.9 0.00 0.00 0.00 60 1015.0
20260831040318 79 165 0.0 0.9 0.00 0.00 0.00 59 1015.0
20260831035816 78 156 0.9 0.9 0.00 0.00 0.00 59 1014.8
20260831035316 78 74 0.0 0.9 0.00 0.00 0.00 62 1014.9
20260831034815 79 288 0.0 0.0 0.00 0.00 0.00 59 1014.8
20260831034311 78 242 0.0 0.0 0.00 0.00 0.00 60 1014.8
20260831033807 77 154 1.7 3.5 0.00 0.00 0.00 61 1014.8
20260831033306 77 237 0.0 0.0 0.00 0.00 0.00 63 1014.6
20260831032802 76 254 0.0 0.0 0.00 0.00 0.00 64 1014.6
20260831032256 74 257 0.0 0.0 0.00 0.00 0.00 71 1014.6
20260831031752 74 244 0.0 0.0 0.00 0.00 0.00 73 1014.7
20260831031251 74 249 0.0 0.0 0.00 0.00 0.00 74 1014.7
20260831030746 74 260 0.0 0.0 0.00 0.00 0.00 74 1014.7
20260831030244 74 224 0.0 0.0 0.00 0.00 0.00 73 1014.5
20260831025743 74 262 0.0 0.0 0.00 0.00 0.00 72 1014.5
20260831025238 75 243 0.0 0.0 0.00 0.00 0.00 71 1014.7
20260831024734 75 255 0.0 0.0 0.00 0.00 0.00 71 1014.3
20260831024233 75 265 0.0 0.0 0.00 0.00 0.00 70 1014.6
20260831023732 75 278 0.0 0.0 0.00 0.00 0.00 69 1014.5
20260831023231 75 265 0.0 0.0 0.00 0.00 0.00 68 1014.3
20260831022726 76 273 0.0 0.0 0.00 0.00 0.00 69 1014.2
20260831022220 76 265 0.0 0.0 0.00 0.00 0.00 68 1014.1
20260831021720 77 254 0.0 0.0 0.00 0.00 0.00 67 1014.2
20260831021214 77 263 0.0 0.0 0.00 0.00 0.00 66 1014.1
20260831020711 77 221 0.0 0.0 0.00 0.00 0.00 66 1014.1
20260831020210 78 275 0.0 0.0 0.00 0.00 0.00 65 1014.0
20260831015706 78 272 0.0 0.0 0.00 0.00 0.00 63 1014.0
20260831015206 79 228 0.0 0.0 0.00 0.00 0.00 63 1013.7
20260831014701 79 299 0.0 0.0 0.00 0.00 0.00 62 1013.8
20260831014156 80 259 0.0 0.0 0.00 0.00 0.00 61 1013.7
20260831013652 80 283 0.0 0.0 0.00 0.00 0.00 60 1013.6
20260831013152 81 269 0.0 0.0 0.00 0.00 0.00 59 1013.5
20260831012647 82 301 0.0 0.0 0.00 0.00 0.00 56 1013.6
20260831012142 83 264 0.0 0.0 0.00 0.00 0.00 55 1013.6
20260831011641 84 283 0.0 0.0 0.00 0.00 0.00 53 1013.6
20260831011137 86 242 0.0 0.0 0.00 0.00 0.00 52 1013.4
20260831010633 87 238 0.0 0.0 0.00 0.00 0.00 48 1013.5
20260831010128 87 193 0.0 0.0 0.00 0.00 0.00 46 1013.3
20260831005628 87 222 0.0 0.9 0.00 0.00 0.00 45 1013.3
20260831005124 87 202 0.9 0.9 0.00 0.00 0.00 45 1013.3
20260831004619 87 239 0.9 0.9 0.00 0.00 0.00 49 1013.4
20260831004115 88 170 0.0 0.9 0.00 0.00 0.00 46 1013.5
20260831003611 87 197 0.0 0.9 0.00 0.00 0.00 49 1013.7
20260831003107 89 219 0.0 0.0 0.00 0.00 0.00 47 1013.5
20260831002605 91 228 0.0 0.0 0.00 0.00 0.00 43 1013.5
20260831002100 92 213 0.0 0.9 0.00 0.00 0.00 40 1013.4
20260831001555 93 228 0.0 0.9 0.00 0.00 0.00 38 1013.7
20260831001052 93 126 2.6 3.5 0.00 0.00 0.00 37 1013.5
20260831000548 93 213 3.5 4.3 0.00 0.00 0.00 37 1013.4
20260831000047 94 200 0.9 2.6 0.00 0.00 0.00 38 1013.5
20260830235546 95 246 0.0 0.9 0.00 0.00 0.00 37 1013.6
20260830235042 96 212 1.7 2.6 0.00 0.00 0.00 35 1013.5
20260830234542 96 206 4.3 6.1 0.00 0.00 0.00 35 1013.7
20260830234038 96 213 1.7 2.6 0.00 0.00 0.00 35 1013.7
20260830233533 96 169 2.6 3.5 0.00 0.00 0.00 34 1013.5
20260830233029 96 213 2.6 3.5 0.00 0.00 0.00 35 1013.6
20260830232525 96 316 3.5 6.1 0.00 0.00 0.00 33 1013.6
20260830232021 97 182 4.3 6.1 0.00 0.00 0.00 32 1013.7
20260830231516 97 199 5.2 7.0 0.00 0.00 0.00 32 1013.7
20260830231015 97 186 7.0 8.7 0.00 0.00 0.00 31 1013.7
20260830230511 97 216 3.5 3.5 0.00 0.00 0.00 33 1013.5
20260830230011 97 208 5.2 7.0 0.00 0.00 0.00 32 1013.5
20260830225506 98 211 2.6 4.3 0.00 0.00 0.00 32 1013.7
20260830225006 98 180 3.5 4.3 0.00 0.00 0.00 31 1013.6
20260830224504 98 183 5.2 6.1 0.00 0.00 0.00 32 1013.7
20260830224001 98 227 3.5 4.3 0.00 0.00 0.00 32 1013.7
20260830223458 98 172 1.7 2.6 0.00 0.00 0.00 32 1013.7
20260830222957 100 249 1.7 3.5 0.00 0.00 0.00 30 1013.6
20260830222452 99 267 0.9 0.9 0.00 0.00 0.00 31 1013.7
20260830221947 98 228 3.5 6.1 0.00 0.00 0.00 31 1013.7
20260830221444 98 187 7.8 10.4 0.00 0.00 0.00 31 1013.7
20260830220939 98 191 2.6 2.6 0.00 0.00 0.00 32 1013.6
20260830220439 98 207 6.1 9.6 0.00 0.00 0.00 31 1013.7
20260830215936 99 272 0.0 0.9 0.00 0.00 0.00 30 1013.8
20260830215432 98 15 2.6 3.5 0.00 0.00 0.00 31 1013.5
20260830214926 98 204 4.3 4.3 0.00 0.00 0.00 31 1013.8
20260830214422 99 234 3.5 3.5 0.00 0.00 0.00 31 1013.7
20260830213922 98 113 2.6 3.5 0.00 0.00 0.00 31 1013.8
20260830213418 98 172 3.5 4.3 0.00 0.00 0.00 31 1014.0
20260830212913 98 227 6.1 8.7 0.00 0.00 0.00 30 1013.9
20260830212409 100 156 4.3 7.0 0.00 0.00 0.00 29 1014.1
20260830211909 101 201 4.3 4.3 0.00 0.00 0.00 29 1013.9
20260830211408 101 251 3.5 4.3 0.00 0.00 0.00 29 1014.0
20260830210904 100 207 3.5 4.3 0.00 0.00 0.00 29 1014.0
20260830210403 101 205 4.3 4.3 0.00 0.00 0.00 28 1013.9
20260830205900 101 207 5.2 7.0 0.00 0.00 0.00 29 1013.9
20260830205400 101 206 5.2 6.1 0.00 0.00 0.00 28 1014.1
20260830204856 101 235 4.3 6.1 0.00 0.00 0.00 29 1014.1
20260830204354 100 282 3.5 4.3 0.00 0.00 0.00 29 1014.2
20260830203850 99 258 1.7 2.6 0.00 0.00 0.00 30 1014.1
20260830203346 101 199 7.8 9.6 0.00 0.00 0.00 30 1014.4
20260830202845 100 221 3.5 3.5 0.00 0.00 0.00 30 1014.1
20260830202341 102 171 5.2 7.0 0.00 0.00 0.00 28 1014.3
20260830201836 102 202 3.5 4.3 0.00 0.00 0.00 30 1014.4
20260830201330 102 108 3.5 3.5 0.00 0.00 0.00 29 1014.4
20260830200826 102 71 1.7 2.6 0.00 0.00 0.00 29 1014.3
20260830200325 101 258 0.0 0.9 0.00 0.00 0.00 30 1014.5
20260830195821 99 197 1.7 2.6 0.00 0.00 0.00 32 1014.6
20260830195321 100 149 4.3 4.3 0.00 0.00 0.00 32 1014.6
20260830194819 101 281 5.2 8.7 0.00 0.00 0.00 31 1014.7
20260830194318 103 221 4.3 4.3 0.00 0.00 0.00 30 1014.8
20260830193814 102 259 0.9 0.9 0.00 0.00 0.00 30 1014.9
20260830193313 100 263 2.6 3.5 0.00 0.00 0.00 30 1014.8
20260830192810 100 197 1.7 2.6 0.00 0.00 0.00 32 1014.8
20260830192309 100 172 4.3 6.1 0.00 0.00 0.00 31 1014.9
20260830191805 101 181 9.6 12.2 0.00 0.00 0.00 31 1014.9
20260830191304 100 229 3.5 3.5 0.00 0.00 0.00 31 1015.0
20260830190800 99 222 4.3 4.3 0.00 0.00 0.00 34 1015.0
20260830190255 98 296 3.5 3.5 0.00 0.00 0.00 34 1015.0
20260830185753 99 171 1.7 2.6 0.00 0.00 0.00 34 1015.1
20260830185249 99 260 3.5 6.1 0.00 0.00 0.00 33 1015.3
20260830184749 99 252 1.7 3.5 0.00 0.00 0.00 34 1015.5
20260830184248 99 196 5.2 8.7 0.00 0.00 0.00 33 1015.6
20260830183743 98 185 4.3 6.1 0.00 0.00 0.00 35 1015.5
20260830183238 98 195 7.0 9.6 0.00 0.00 0.00 34 1015.5
20260830182733 98 195 5.2 7.0 0.00 0.00 0.00 35 1015.4
20260830182229 98 223 5.2 7.0 0.00 0.00 0.00 35 1015.4